Location: Tamazert
(32.6352°N, 5.2072°W)
Time: 16:13:49
(UTC+00:00)

Transit 2A Rocket - Pass Details

Date: 11 October 2022
Orbit: 589 x 912 km, 66.7° (Epoch: 07 December)

Event Time Altitude Azimuth Distance (km) Brightness Sun altitude
Rises 13:30:59 0° 331° (NNW) 3,106 7.9 45.5°
Reaches altitude 10° 13:33:15 10° 328° (NNW) 2,233 7.3 45.3°
Maximum altitude 13:38:20 68° 246° (WSW) 839 6.5 44.7°
Drops below altitude 10° 13:43:54 10° 165° (SSE) 2,435 8.2 44.1°
Sets 13:46:28 0° 162° (SSE) 3,409 8.7 43.8°
